Location: Newark
(5.8900°S, 42.6378°W)
Time: 00:02:45
(UTC+00:00)

Vanguard 1 Rocket - Pass Details

Date: 19 October 2019
Orbit: 651 x 4225 km, 34.3° (Epoch: 14 November)

Event Time Altitude Azimuth Distance (km) Brightness Sun altitude
Rises 21:44:57 0° 308° (NW) 8,401 12.9 -15.9°
Reaches altitude 10° 21:51:09 10° 309° (NW) 7,178 12.5 -17.4°
Maximum altitude 22:14:02 87° 37° (NE) 2,720 9.6 -23.0°
Enters shadow 22:24:03 19° 125° (SE) 3,623 10.1 -25.4°
Drops below altitude 10° 22:25:48 10° 125° (SE) 4,051 - -25.8°
Sets 22:28:16 0° 125° (SE) 4,717 - -26.4°
